Showing default

COSMOS 2432 (GLONASS), 32276

Orbit data source: Space-Track

COSMOS 2432 (GLONASS), 32276 is a Commonwealth of Independent States-origin payload satellite in MEO that was launched on Fri, 26 Oct 2007 UTC via a PROTON-K/DM-2 launch vehicle from the Tyuratam Missile And Space Complex (TTMTR). Payload-class satellites include a variety of spacecraft equipped with specific instruments for various scientific and technological missions. These include communications satellites like Starlink; space stations such as the ISS; scientific satellites like the Hubble; Earth observation satellites from companies like Planet Labs, Umbra, and HawkEye 360; GPS; miniature CubeSats for education and research; and military/defense satellites.

Loading next visibility...
Identifier
32276, 2007-052B
Orbit
MEO
Country
Flag of CISCIS
Related business
Manufacturer
Resehetnev ISS
Mission
On reserve Defense Navigation
Bus & Motor
URAGAN, Unknown motor
Mass
1,450 kg wet, ~1,200 kg dry
Launch date (UTC)
2007-10-26 (19 years ago)
Launch vehicle
PROTON-K/DM-2
Launch site
Tyuratam Missile And Space Complex (TTMTR)
Object type
Payload
Rocket body
Debris
Shape & HBR
Cyl + 1 Ant + 2 Pan, 3.9 m
Radar Cross Section
8.467 m², Large (>1 m²)

Expand to show TLE details & history
Last TLE update: 4 days ago

TLE from 4 days ago
0 COSMOS 2432 (GLONASS)
1 32276U 07052B   26169.43377550 -.00000056  00000-0  00000+0 0  9993
2 32276  65.5932 316.0195 0007652 331.4172  57.1212  2.13103035145116
Epoch: 2026-06-18T10:24Z
TLE epoch observation values (Epoch: 2026-06-18T10:24:38.203Z)
Latitude
25.90619°
Longitude
-94.12264°
Altitude
19,120.469 km
Speed
3.955 km/s
True Right ascension
21h 54m 51s
True Declination
25° 52' 06"
Sunlit
Object was in daylight at epoch
Visualization orbit readout
Latitude
Unknown
Longitude
Unknown
Altitude
Unknown
Speed
Unknown
Apparent Right ascension
Unknown
Apparent Declination
Unknown
Sunlit
N/A
Visualization observer readout
Local Sidereal Time
00:50:11
Azimuth
Unknown
Elevation
Unknown
Doppler factor
Unknown
Orbital elements
Apogee altitude
19,148.918 km
Perigee altitude
19,109.881 km
Semi-major axis
25,507.536 km
Eccentricity
0.00077
Inclination
65.5932°
RAAN
316.0195°
Arg. of periapsis
331.4172°
True anomaly
57.19488°
Mean anomaly
57.1212°
Eccentric anomaly
57.15804°
Mean motion
0.53277 °/min
Orbital period
675.71 mins
BSTAR
0
Loading maneuver chart data...
Computing Atmospheric mass density...
Loading historical data...
Loading historical data...
Loading historical data...
Loading historical data...
Loading historical data...
Loading historical data...
Loading historical data...

Documentation

Showing up to 5 results
|